Year,Month,Day,Hour,Minute,Value (Times are PST for temperature in C)
2009,07,14,08,02,12.80
2009,07,14,08,03,12.90
2009,07,14,08,04,12.90
2009,07,14,08,05,13.00
2009,07,14,08,06,13.00
2009,07,14,08,07,13.00
2009,07,14,08,08,13.00
2009,07,14,08,09,13.00
2009,07,14,08,10,13.00
2009,07,14,08,11,13.10
2009,07,14,08,12,13.10
2009,07,14,08,13,13.10
2009,07,14,08,14,13.20
2009,07,14,08,15,13.20
2009,07,14,08,16,13.30
2009,07,14,08,17,13.30
2009,07,14,08,18,13.40
2009,07,14,08,19,13.40
2009,07,14,08,20,13.40
2009,07,14,08,21,13.40
2009,07,14,08,22,13.40
2009,07,14,08,23,13.50
2009,07,14,08,24,13.50
2009,07,14,08,25,13.60
2009,07,14,08,26,13.60
2009,07,14,08,27,13.70
2009,07,14,08,28,13.70
2009,07,14,08,29,13.80
2009,07,14,08,30,13.80
2009,07,14,08,31,13.80
2009,07,14,08,32,13.80
2009,07,14,08,33,13.80
2009,07,14,08,34,13.90
2009,07,14,08,35,13.90
2009,07,14,08,36,14.00
2009,07,14,08,37,14.10
2009,07,14,08,38,14.20
2009,07,14,08,39,14.20
2009,07,14,08,40,14.30
2009,07,14,08,41,14.40
2009,07,14,08,42,14.50
2009,07,14,08,43,14.50
2009,07,14,08,44,14.60
2009,07,14,08,45,14.70
2009,07,14,08,46,14.70
2009,07,14,08,47,14.80
2009,07,14,08,48,14.90
2009,07,14,08,49,14.90
2009,07,14,08,50,15.00
2009,07,14,08,51,15.00
2009,07,14,08,52,15.00
2009,07,14,08,53,15.00
2009,07,14,08,54,14.90
2009,07,14,08,55,14.80
2009,07,14,08,56,14.70
2009,07,14,08,57,14.60
2009,07,14,08,58,14.60
2009,07,14,08,59,14.60
2009,07,14,09,00,14.70
2009,07,14,09,01,14.70
2009,07,14,09,02,14.60
2009,07,14,09,03,14.50
2009,07,14,09,04,14.50
2009,07,14,09,05,14.40
2009,07,14,09,06,14.40
2009,07,14,09,07,14.40
2009,07,14,09,08,14.40
2009,07,14,09,09,14.40
2009,07,14,09,10,14.40
2009,07,14,09,11,14.40
2009,07,14,09,12,14.40
2009,07,14,09,13,14.40
2009,07,14,09,14,14.40
2009,07,14,09,15,14.50
2009,07,14,09,16,14.50
2009,07,14,09,17,14.50
2009,07,14,09,18,14.50
2009,07,14,09,19,14.60
2009,07,14,09,20,14.60
2009,07,14,09,21,14.60
2009,07,14,09,22,14.60
2009,07,14,09,23,14.60
2009,07,14,09,24,14.60
2009,07,14,09,25,14.60
2009,07,14,09,26,14.60
2009,07,14,09,27,14.60
2009,07,14,09,28,14.70
2009,07,14,09,29,14.70
2009,07,14,09,30,14.80
2009,07,14,09,31,14.80
2009,07,14,09,32,14.80
2009,07,14,09,33,14.80
2009,07,14,09,34,14.80
2009,07,14,09,35,14.80
2009,07,14,09,36,14.80
2009,07,14,09,37,14.80
2009,07,14,09,38,14.80
2009,07,14,09,39,14.80
2009,07,14,09,40,14.80
2009,07,14,09,41,14.80
2009,07,14,09,42,14.80
2009,07,14,09,43,14.70
2009,07,14,09,44,14.70
2009,07,14,09,45,14.70
2009,07,14,09,46,14.70
2009,07,14,09,47,14.80
2009,07,14,09,48,14.70
2009,07,14,09,49,14.70
2009,07,14,09,50,14.70
2009,07,14,09,51,14.70
2009,07,14,09,52,14.90
2009,07,14,09,53,15.00
2009,07,14,09,54,15.00
2009,07,14,09,55,15.00
2009,07,14,09,56,15.00
2009,07,14,09,57,15.00
2009,07,14,09,58,15.00
2009,07,14,09,59,15.00
2009,07,14,10,00,15.00
2009,07,14,10,01,15.00
2009,07,14,10,02,14.90
2009,07,14,10,03,15.00
2009,07,14,10,04,15.00
2009,07,14,10,05,15.00
2009,07,14,10,06,15.00
2009,07,14,10,07,15.00
2009,07,14,10,08,15.00
2009,07,14,10,09,15.00
2009,07,14,10,10,15.00
2009,07,14,10,11,15.00
2009,07,14,10,12,15.10
2009,07,14,10,13,15.10
2009,07,14,10,14,15.20
2009,07,14,10,15,15.20
2009,07,14,10,16,15.20
2009,07,14,10,17,15.20
2009,07,14,10,18,15.20
2009,07,14,10,19,15.40
2009,07,14,10,20,15.50
2009,07,14,10,21,15.60
2009,07,14,10,22,15.60
2009,07,14,10,23,15.50
2009,07,14,10,24,15.40
2009,07,14,10,25,15.40
2009,07,14,10,26,15.40
2009,07,14,10,27,15.50
2009,07,14,10,28,15.50
2009,07,14,10,29,15.60
2009,07,14,10,30,15.60
2009,07,14,10,31,15.50
2009,07,14,10,32,15.40
2009,07,14,10,33,15.30
2009,07,14,10,34,15.30
2009,07,14,10,35,15.20
2009,07,14,10,36,15.30
2009,07,14,10,37,15.30
2009,07,14,10,38,15.40
2009,07,14,10,39,15.50
2009,07,14,10,40,15.50
2009,07,14,10,41,15.60
2009,07,14,10,42,15.60
2009,07,14,10,43,15.50
2009,07,14,10,44,15.50
2009,07,14,10,45,15.50
2009,07,14,10,46,15.60
2009,07,14,10,47,15.60
2009,07,14,10,48,15.50
2009,07,14,10,49,15.50
2009,07,14,10,50,15.50
2009,07,14,10,51,15.40
2009,07,14,10,52,15.30
2009,07,14,10,53,15.30
2009,07,14,10,54,15.40
2009,07,14,10,55,15.40
2009,07,14,10,56,15.40
2009,07,14,10,57,15.50
2009,07,14,10,58,15.50
2009,07,14,10,59,15.60
2009,07,14,11,00,15.70
2009,07,14,11,01,15.70
2009,07,14,11,02,15.80
2009,07,14,11,03,15.90
2009,07,14,11,04,15.90
2009,07,14,11,05,16.00
2009,07,14,11,06,16.10
2009,07,14,11,07,16.20
2009,07,14,11,08,16.10
2009,07,14,11,09,16.10
2009,07,14,11,10,16.10
2009,07,14,11,11,16.20
2009,07,14,11,12,16.20
2009,07,14,11,13,16.20
2009,07,14,11,14,16.20
2009,07,14,11,15,16.20
2009,07,14,11,16,16.20
2009,07,14,11,17,16.20
2009,07,14,11,18,16.20
2009,07,14,11,19,16.20
2009,07,14,11,20,16.20
2009,07,14,11,21,16.20
2009,07,14,11,22,16.20
2009,07,14,11,23,16.20
2009,07,14,11,24,16.20
2009,07,14,11,25,16.20
2009,07,14,11,26,16.20
2009,07,14,11,27,16.20
2009,07,14,11,28,16.50
2009,07,14,11,29,16.60
2009,07,14,11,30,16.60
2009,07,14,11,31,16.50
2009,07,14,11,32,16.30
2009,07,14,11,33,16.20
2009,07,14,11,34,16.20
2009,07,14,11,35,16.20
2009,07,14,11,36,16.10
2009,07,14,11,37,16.00
2009,07,14,11,38,16.00
2009,07,14,11,39,16.00
2009,07,14,11,40,15.90
2009,07,14,11,41,15.90
2009,07,14,11,42,16.00
2009,07,14,11,43,16.00
2009,07,14,11,44,16.00
2009,07,14,11,45,16.10
2009,07,14,11,46,16.20
2009,07,14,11,47,16.20
2009,07,14,11,48,16.20
2009,07,14,11,49,16.30
2009,07,14,11,50,16.20
2009,07,14,11,51,16.30
2009,07,14,11,52,16.30
2009,07,14,11,53,16.30
2009,07,14,11,54,16.40
2009,07,14,11,55,16.60
2009,07,14,11,56,16.70
2009,07,14,11,57,16.70
2009,07,14,11,58,16.60
2009,07,14,11,59,16.50
2009,07,14,12,00,16.40
2009,07,14,12,01,16.40
2009,07,14,12,02,16.50
2009,07,14,12,03,16.70
2009,07,14,12,04,16.80
2009,07,14,12,05,16.90
2009,07,14,12,06,16.80
2009,07,14,12,07,16.80
2009,07,14,12,08,16.80
2009,07,14,12,09,16.80
2009,07,14,12,10,16.80
2009,07,14,12,11,16.90
2009,07,14,12,12,16.90
2009,07,14,12,13,17.00
2009,07,14,12,14,17.10
2009,07,14,12,15,17.10
2009,07,14,12,16,16.90
2009,07,14,12,17,16.70
2009,07,14,12,18,16.50
2009,07,14,12,19,16.50
2009,07,14,12,20,16.40
2009,07,14,12,21,16.50
2009,07,14,12,22,16.70
2009,07,14,12,23,16.80
2009,07,14,12,24,16.90
2009,07,14,12,25,17.10
2009,07,14,12,26,17.20
2009,07,14,12,27,17.40
2009,07,14,12,28,17.40
2009,07,14,12,29,17.40
2009,07,14,12,30,17.30
2009,07,14,12,31,17.30
2009,07,14,12,32,17.40
2009,07,14,12,33,17.40
2009,07,14,12,34,17.50
2009,07,14,12,35,17.60
2009,07,14,12,36,17.60
2009,07,14,12,37,17.50
2009,07,14,12,38,17.40
2009,07,14,12,39,17.30
2009,07,14,12,40,17.30
2009,07,14,12,41,17.30
2009,07,14,12,42,17.20
2009,07,14,12,43,17.30
2009,07,14,12,44,17.20
2009,07,14,12,45,17.20
2009,07,14,12,46,17.10
2009,07,14,12,47,17.10
2009,07,14,12,48,17.20
2009,07,14,12,49,17.30
2009,07,14,12,50,17.30
2009,07,14,12,51,17.30
2009,07,14,12,52,17.30
2009,07,14,12,53,17.40
2009,07,14,12,54,17.50
2009,07,14,12,55,17.50
2009,07,14,12,56,17.50
2009,07,14,12,57,17.60
2009,07,14,12,58,17.50
2009,07,14,12,59,17.40
2009,07,14,13,00,17.50
2009,07,14,13,01,17.50
2009,07,14,13,02,17.60
2009,07,14,13,03,17.60
2009,07,14,13,04,17.60
2009,07,14,13,05,17.50
2009,07,14,13,06,17.40
2009,07,14,13,07,17.40
2009,07,14,13,08,17.30
2009,07,14,13,09,17.30
2009,07,14,13,10,17.30
2009,07,14,13,11,17.30
2009,07,14,13,12,17.30
2009,07,14,13,13,17.40
2009,07,14,13,14,17.50
2009,07,14,13,15,17.60
2009,07,14,13,16,17.70
2009,07,14,13,17,17.70
2009,07,14,13,18,17.60
2009,07,14,13,19,17.50
2009,07,14,13,20,17.50
2009,07,14,13,21,17.60
2009,07,14,13,22,17.60
2009,07,14,13,23,17.50
2009,07,14,13,24,17.40
2009,07,14,13,25,17.40
2009,07,14,13,26,17.40
2009,07,14,13,27,17.50
2009,07,14,13,28,17.70
2009,07,14,13,29,17.80
2009,07,14,13,30,17.90
2009,07,14,13,31,17.90
2009,07,14,13,32,18.00
2009,07,14,13,33,18.00
2009,07,14,13,34,18.00
2009,07,14,13,35,18.00
2009,07,14,13,36,17.90
2009,07,14,13,37,17.90
2009,07,14,13,38,18.00
2009,07,14,13,39,18.10
2009,07,14,13,40,18.20
2009,07,14,13,41,18.30
2009,07,14,13,42,18.40
2009,07,14,13,43,18.40
2009,07,14,13,44,18.40
2009,07,14,13,45,18.40
2009,07,14,13,46,18.50
2009,07,14,13,47,18.50
2009,07,14,13,48,18.40
2009,07,14,13,49,18.30
2009,07,14,13,50,18.30
2009,07,14,13,51,18.30
2009,07,14,13,52,18.30
2009,07,14,13,53,18.20
2009,07,14,13,54,18.10
2009,07,14,13,55,18.10
2009,07,14,13,56,18.20
2009,07,14,13,57,18.30
2009,07,14,13,58,18.40
2009,07,14,13,59,18.60
2009,07,14,14,00,18.70
2009,07,14,14,01,18.70
2009,07,14,14,02,18.60
2009,07,14,14,03,18.70
2009,07,14,14,04,18.70
2009,07,14,14,05,18.70
2009,07,14,14,06,18.80
2009,07,14,14,07,18.90
2009,07,14,14,08,18.90
2009,07,14,14,09,18.90
2009,07,14,14,10,19.00
2009,07,14,14,11,19.10
2009,07,14,14,12,19.20
2009,07,14,14,13,19.10
2009,07,14,14,14,18.90
2009,07,14,14,15,18.70
2009,07,14,14,16,18.40
2009,07,14,14,17,18.30
2009,07,14,14,18,18.30
2009,07,14,14,19,18.40
2009,07,14,14,20,18.50
2009,07,14,14,21,18.70
2009,07,14,14,22,18.70
2009,07,14,14,23,18.80
2009,07,14,14,24,18.90
2009,07,14,14,25,19.00
2009,07,14,14,26,19.00
2009,07,14,14,27,19.00
2009,07,14,14,28,19.10
2009,07,14,14,29,19.10
2009,07,14,14,30,19.20
2009,07,14,14,31,19.30
2009,07,14,14,32,19.30
2009,07,14,14,33,19.10
2009,07,14,14,34,19.00
2009,07,14,14,35,18.90
2009,07,14,14,36,18.90
2009,07,14,14,37,18.90
2009,07,14,14,38,19.00
2009,07,14,14,39,19.00
2009,07,14,14,40,18.80
2009,07,14,14,41,18.60
2009,07,14,14,42,18.50
2009,07,14,14,43,18.40
2009,07,14,14,44,18.40
2009,07,14,14,45,18.50
2009,07,14,14,46,18.50
2009,07,14,14,47,18.60
2009,07,14,14,48,18.70
2009,07,14,14,49,18.80
2009,07,14,14,50,19.00
2009,07,14,14,51,19.20
2009,07,14,14,52,19.20
2009,07,14,14,53,19.20
2009,07,14,14,54,19.30
2009,07,14,14,55,19.30
2009,07,14,14,56,19.40
2009,07,14,14,57,19.50
2009,07,14,14,58,19.70
2009,07,14,14,59,19.80
2009,07,14,15,00,20.00
2009,07,14,15,01,20.00
2009,07,14,15,02,19.90
2009,07,14,15,03,20.00
2009,07,14,15,04,20.00
2009,07,14,15,05,20.10
2009,07,14,15,06,20.20
2009,07,14,15,07,20.20
2009,07,14,15,08,20.30
2009,07,14,15,09,20.30
2009,07,14,15,10,20.30
2009,07,14,15,11,20.20
2009,07,14,15,12,20.30
2009,07,14,15,13,20.30
2009,07,14,15,14,20.30
2009,07,14,15,15,20.30
2009,07,14,15,16,20.30
2009,07,14,15,17,20.30
2009,07,14,15,18,20.20
2009,07,14,15,19,20.20
2009,07,14,15,20,20.20
2009,07,14,15,21,20.20
2009,07,14,15,22,20.10
2009,07,14,15,23,20.10
2009,07,14,15,24,20.00
2009,07,14,15,25,20.00
2009,07,14,15,26,20.00
2009,07,14,15,27,20.00
2009,07,14,15,28,20.10
2009,07,14,15,29,20.10
2009,07,14,15,30,20.20
2009,07,14,15,31,20.30
2009,07,14,15,32,20.40
2009,07,14,15,33,20.50
2009,07,14,15,34,20.60
2009,07,14,15,35,20.70
2009,07,14,15,36,20.70
2009,07,14,15,37,20.70
2009,07,14,15,38,20.70
2009,07,14,15,39,20.70
2009,07,14,15,40,20.70
2009,07,14,15,41,20.70
2009,07,14,15,42,20.70
2009,07,14,15,43,20.60
2009,07,14,15,44,20.70
2009,07,14,15,45,20.70
2009,07,14,15,46,20.70
2009,07,14,15,47,20.60
2009,07,14,15,48,20.60
2009,07,14,15,49,20.70
2009,07,14,15,50,20.80
2009,07,14,15,51,20.90
2009,07,14,15,52,20.90
2009,07,14,15,53,20.90
2009,07,14,15,54,20.90
2009,07,14,15,55,20.80
2009,07,14,15,56,20.60
2009,07,14,15,57,20.40
2009,07,14,15,58,20.30
2009,07,14,15,59,20.20
2009,07,14,16,00,20.10
2009,07,14,16,01,20.00
2009,07,14,16,02,19.90
2009,07,14,16,03,19.90
2009,07,14,16,04,20.00
2009,07,14,16,05,20.00
2009,07,14,16,06,19.90
2009,07,14,16,07,19.90
2009,07,14,16,08,19.80
2009,07,14,16,09,19.70
2009,07,14,16,10,19.50
2009,07,14,16,11,19.40
2009,07,14,16,12,19.30
2009,07,14,16,13,19.30
2009,07,14,16,14,19.30
2009,07,14,16,15,19.40
2009,07,14,16,16,19.40
2009,07,14,16,17,19.50
2009,07,14,16,18,19.50
2009,07,14,16,19,19.50
2009,07,14,16,20,19.40
2009,07,14,16,21,19.30
2009,07,14,16,22,19.20
2009,07,14,16,23,19.20
2009,07,14,16,24,19.20
2009,07,14,16,25,19.20
2009,07,14,16,26,19.20
2009,07,14,16,27,19.30
2009,07,14,16,28,19.40
2009,07,14,16,29,19.50
2009,07,14,16,30,19.60
2009,07,14,16,31,19.60
2009,07,14,16,32,19.60
2009,07,14,16,33,19.50
2009,07,14,16,34,19.40
2009,07,14,16,35,19.30
2009,07,14,16,36,19.40
2009,07,14,16,37,19.40
2009,07,14,16,38,19.50
2009,07,14,16,39,19.60
2009,07,14,16,40,19.60
2009,07,14,16,41,19.60
2009,07,14,16,42,19.70
2009,07,14,16,43,19.70
2009,07,14,16,44,19.70
2009,07,14,16,45,19.80
2009,07,14,16,46,19.80
2009,07,14,16,47,19.70
2009,07,14,16,48,19.70
2009,07,14,16,49,19.70
2009,07,14,16,50,19.60
2009,07,14,16,51,19.60
2009,07,14,16,52,19.50
2009,07,14,16,53,19.50
2009,07,14,16,54,19.50
2009,07,14,16,55,19.40
2009,07,14,16,56,19.40
2009,07,14,16,57,19.30
2009,07,14,16,58,19.30
2009,07,14,16,59,19.30
2009,07,14,17,00,19.30
2009,07,14,17,01,19.30
2009,07,14,17,02,19.40
2009,07,14,17,03,19.50
2009,07,14,17,04,19.40
2009,07,14,17,05,19.40
2009,07,14,17,06,19.40
2009,07,14,17,07,19.30
2009,07,14,17,08,19.20
2009,07,14,17,09,19.10
2009,07,14,17,10,19.10
2009,07,14,17,11,19.00
2009,07,14,17,12,18.90
2009,07,14,17,13,18.90
2009,07,14,17,14,18.90
2009,07,14,17,15,18.80
2009,07,14,17,16,18.80
2009,07,14,17,17,18.90
2009,07,14,17,18,18.90
2009,07,14,17,19,18.80
2009,07,14,17,20,18.80
2009,07,14,17,21,18.90
2009,07,14,17,22,18.90
2009,07,14,17,23,18.90
2009,07,14,17,24,19.00
2009,07,14,17,25,19.00
2009,07,14,17,26,19.10
2009,07,14,17,27,19.20
2009,07,14,17,28,19.30
2009,07,14,17,29,19.30
2009,07,14,17,30,19.30
2009,07,14,17,31,19.30
2009,07,14,17,32,19.30
2009,07,14,17,33,19.40
2009,07,14,17,34,19.50
2009,07,14,17,35,19.50
2009,07,14,17,36,19.60
2009,07,14,17,37,19.60
2009,07,14,17,38,19.60
2009,07,14,17,39,19.60
2009,07,14,17,40,19.60
2009,07,14,17,41,19.60
2009,07,14,17,42,19.60
2009,07,14,17,43,19.60
2009,07,14,17,44,19.50
2009,07,14,17,45,19.30
2009,07,14,17,46,19.20
2009,07,14,17,47,19.10
2009,07,14,17,48,19.10
2009,07,14,17,49,19.10
2009,07,14,17,50,19.00
2009,07,14,17,51,18.90
2009,07,14,17,52,18.90
2009,07,14,17,53,18.90
2009,07,14,17,54,18.90
2009,07,14,17,55,18.90
2009,07,14,17,56,18.90
2009,07,14,17,57,18.90
2009,07,14,17,58,18.90
2009,07,14,17,59,18.80
2009,07,14,18,00,18.80
2009,07,14,18,01,18.80
2009,07,14,18,02,18.70
2009,07,14,18,03,18.70
2009,07,14,18,04,18.70
2009,07,14,18,05,18.70
2009,07,14,18,06,18.70
2009,07,14,18,07,18.70
2009,07,14,18,08,18.80
2009,07,14,18,09,18.80
2009,07,14,18,10,18.90
2009,07,14,18,11,18.90
2009,07,14,18,12,18.90
2009,07,14,18,13,18.90
2009,07,14,18,14,18.90
2009,07,14,18,15,18.90
2009,07,14,18,16,18.80
2009,07,14,18,17,18.80
2009,07,14,18,18,18.80
2009,07,14,18,19,18.80
2009,07,14,18,20,18.80
2009,07,14,18,21,18.80
2009,07,14,18,22,18.80
2009,07,14,18,23,18.80
2009,07,14,18,24,18.80
2009,07,14,18,25,18.80
2009,07,14,18,26,18.70
2009,07,14,18,27,18.70
2009,07,14,18,28,18.70
2009,07,14,18,29,18.70
2009,07,14,18,30,18.80
2009,07,14,18,31,18.80
2009,07,14,18,32,18.70
2009,07,14,18,33,18.80
2009,07,14,18,34,18.80
2009,07,14,18,35,18.80
2009,07,14,18,36,18.80
2009,07,14,18,37,18.90
2009,07,14,18,38,18.90
2009,07,14,18,39,18.90
2009,07,14,18,40,18.90
2009,07,14,18,41,18.90
2009,07,14,18,42,18.90
2009,07,14,18,43,18.90
2009,07,14,18,44,18.90
2009,07,14,18,45,18.90
2009,07,14,18,46,18.90
2009,07,14,18,47,18.90
2009,07,14,18,48,19.00
2009,07,14,18,49,19.00
2009,07,14,18,50,19.00
2009,07,14,18,51,19.00
2009,07,14,18,52,19.00
2009,07,14,18,53,19.00
2009,07,14,18,54,19.00
2009,07,14,18,55,19.00
2009,07,14,18,56,19.00
2009,07,14,18,57,19.00
2009,07,14,18,58,19.00
2009,07,14,18,59,19.00
2009,07,14,19,00,18.90
2009,07,14,19,01,18.90
2009,07,14,19,02,18.90
2009,07,14,19,03,18.90
2009,07,14,19,04,18.90
2009,07,14,19,05,18.90
2009,07,14,19,06,18.90
2009,07,14,19,07,18.90
2009,07,14,19,08,18.90
2009,07,14,19,09,18.90
2009,07,14,19,10,19.00
2009,07,14,19,11,19.00
2009,07,14,19,12,19.10
2009,07,14,19,13,19.10
2009,07,14,19,14,19.10
2009,07,14,19,15,19.20
2009,07,14,19,16,19.10
2009,07,14,19,17,19.10
2009,07,14,19,18,19.10
2009,07,14,19,19,19.10
2009,07,14,19,20,19.10
2009,07,14,19,21,19.00
2009,07,14,19,22,19.00
2009,07,14,19,23,19.00
2009,07,14,19,24,19.10
2009,07,14,19,25,19.00
2009,07,14,19,26,19.00
2009,07,14,19,27,19.00
2009,07,14,19,28,19.00
2009,07,14,19,29,19.00
2009,07,14,19,30,19.00
2009,07,14,19,31,18.90
2009,07,14,19,32,18.90
2009,07,14,19,33,18.90
2009,07,14,19,34,18.90
2009,07,14,19,35,18.80
2009,07,14,19,36,18.80
2009,07,14,19,37,18.70
2009,07,14,19,38,18.60
2009,07,14,19,39,18.60
2009,07,14,19,40,18.60
2009,07,14,19,41,18.60
2009,07,14,19,42,18.60
2009,07,14,19,43,18.50
2009,07,14,19,44,18.50
2009,07,14,19,45,18.50
2009,07,14,19,46,18.50
2009,07,14,19,47,18.40
2009,07,14,19,48,18.40
2009,07,14,19,49,18.40
2009,07,14,19,50,18.40
2009,07,14,19,51,18.40
2009,07,14,19,52,18.40
2009,07,14,19,53,18.40
2009,07,14,19,54,18.40
2009,07,14,19,55,18.30
2009,07,14,19,56,18.30
2009,07,14,19,57,18.30
2009,07,14,19,58,18.20
2009,07,14,19,59,18.20
2009,07,14,20,00,18.10
2009,07,14,20,01,18.10
2009,07,14,20,02,18.00
2009,07,14,20,03,18.00
2009,07,14,20,04,17.90
2009,07,14,20,05,17.90
2009,07,14,20,06,17.80
2009,07,14,20,07,17.80
2009,07,14,20,08,17.80
2009,07,14,20,09,17.80
2009,07,14,20,10,17.80
2009,07,14,20,11,17.80
2009,07,14,20,12,17.80
2009,07,14,20,13,17.70
2009,07,14,20,14,17.70
2009,07,14,20,15,17.70
2009,07,14,20,16,17.60
2009,07,14,20,17,17.60
2009,07,14,20,18,17.50
2009,07,14,20,19,17.50
2009,07,14,20,20,17.40
2009,07,14,20,21,17.40
2009,07,14,20,22,17.30
2009,07,14,20,23,17.30
2009,07,14,20,24,17.30
2009,07,14,20,25,17.30
2009,07,14,20,26,17.20
2009,07,14,20,27,17.20
2009,07,14,20,28,17.20
2009,07,14,20,29,17.10
2009,07,14,20,30,17.10
2009,07,14,20,31,17.10
2009,07,14,20,32,17.00
2009,07,14,20,33,17.00
2009,07,14,20,34,17.00
2009,07,14,20,35,16.90
2009,07,14,20,36,16.90
2009,07,14,20,37,16.90
2009,07,14,20,38,16.80
2009,07,14,20,39,16.80
2009,07,14,20,40,16.80
2009,07,14,20,41,16.70
2009,07,14,20,42,16.70
2009,07,14,20,43,16.70
2009,07,14,20,44,16.70
2009,07,14,20,45,16.60
2009,07,14,20,46,16.60
2009,07,14,20,47,16.60
2009,07,14,20,48,16.60
2009,07,14,20,49,16.50
2009,07,14,20,50,16.50
2009,07,14,20,51,16.50
2009,07,14,20,52,16.50
2009,07,14,20,53,16.50
2009,07,14,20,54,16.50
2009,07,14,20,55,16.50
2009,07,14,20,56,16.50
2009,07,14,20,57,16.50
2009,07,14,20,58,16.50
2009,07,14,20,59,16.50
2009,07,14,21,00,16.50
